Tracking 22879 objects as of 21-Apr-2021
HD Live streaming from Space Station
objects crossing your sky now

STARLINK-2116

Track STARLINK-2116 now!
10-day predictions
STARLINK-2116 is classified as:


NORAD ID: 47724
Int'l Code: 2021-017C
Perigee: 356.1 km
Apogee: 357.6 km
Inclination: 53.0 °
Period: 91.5 minutes
Semi major axis: 6727 km
RCS: Unknown
Launch date: March 4, 2021
Source: United States (US)
Launch site: AIR FORCE EASTERN TEST RANGE (AFETR)
aabbcc
Your satellite tracking list
Your tracking list is empty




NASA's NSSDC Master Catalog

Two Line Element Set (TLE):
1 47724U 21017C   21110.91667824  .00004468  00000-0  36213-4 0  9994
2 47724  53.0476 307.5030 0001118  86.6593  36.7025 15.73210022  8124
Source of the keplerian elements: AFSPC